Martha's Vineyard, MA

12:48 AM EDT on October 18, 2017 (GMT -0400)
Martha's Vineyard

Weather History for KMVY - November, 2011

Change the Weather History Date:

Sunday, November 6, 2011

  Actual Average Record
Temperature  
Mean Temperature 37 °F -  
Max Temperature 55 °F 56 °F 69 °F (1948)
Min Temperature 19 °F 40 °F 19 °F (2011)
Degree Days  
Heating Degree Days 28    
Moisture  
Dew Point 30 °F    
Average Humidity 70    
Maximum Humidity 89    
Minimum Humidity 43    
Precipitation  
Precipitation 0.00 in - - ()
Sea Level Pressure  
Sea Level Pressure 30.46 in    
Wind  
Wind Speed 4 mph (SW)    
Max Wind Speed 15 mph    
Max Gust Speed 22 mph    
Visibility 10 miles    
Events      
Averages and records for this station are not official NWS values.
T = Trace of Precipitation, MM = Missing Value Source: NWS Daily Summary

Daily Weather History Graph

Daily Weather History Graph

Search for Another Location

Airport or City:

Trip Planner

Search our weather history database for the weather conditions in past years. The results will help you decide how hot, cold, wet, or windy it might be!

Date:

Astronomy

Nov. 06, 2011 Rise Set
Actual Time 6:19 AM EST 4:31 PM EST
Civil Twilight 5:50 AM EST 5:00 PM EST
Nautical Twilight 5:17 AM EST 5:33 PM EST
Astronomical Twilight 4:45 AM EST 6:06 PM EST
Moon 2:16 PM EST (11/6) 2:20 AM EST (11/6)
Length of Visible Light 11h 10m
Length of Day
10h 12m
Waxing Gibbous, 85% of the Moon is Illuminated
Nov 6
Waxing Gibbous
Nov 10
Full
Nov 18
Last Quarter
Nov 25
New
Dec 2
First Quarter

Hourly Weather History & Observations

Time (EST) Temp. Windchill Dew Point Humidity Pressure Visibility Wind Dir Wind Speed Gust Speed Precip Events Conditions
12:53 AM 21.9 °F - 19.0 °F 89% 30.49 in 10.0 mi Calm Calm - N/A   Clear
1:53 AM 21.0 °F - 17.1 °F 85% 30.49 in 10.0 mi Calm Calm - N/A   Clear
1:53 AM 21.0 °F - 17.1 °F 85% 30.50 in 10.0 mi Calm Calm - N/A   Clear
2:53 AM 19.9 °F - 16.0 °F 85% 30.49 in 10.0 mi Calm Calm - N/A   Clear
3:53 AM 19.9 °F - 17.1 °F 89% 30.49 in 10.0 mi Calm Calm - N/A   Clear
4:53 AM 19.9 °F - 15.1 °F 81% 30.50 in 10.0 mi Calm Calm - N/A   Clear
5:53 AM 19.0 °F - 15.1 °F 85% 30.51 in 10.0 mi Calm Calm - N/A   Clear
6:53 AM 23.0 °F - 18.0 °F 81% 30.52 in 10.0 mi Calm Calm - N/A   Clear
7:53 AM 39.0 °F - 34.0 °F 82% 30.52 in 10.0 mi Calm Calm - N/A   Clear
8:53 AM 51.1 °F - 34.0 °F 52% 30.53 in 10.0 mi SW 6.9 mph - N/A   Clear
9:53 AM 54.0 °F - 32.0 °F 43% 30.53 in 10.0 mi West 11.5 mph - N/A   Clear
10:53 AM 55.0 °F - 33.1 °F 43% 30.51 in 10.0 mi SW 12.7 mph 21.9 mph N/A   Clear
11:53 AM 55.0 °F - 34.0 °F 45% 30.48 in 10.0 mi SSW 11.5 mph 19.6 mph N/A   Clear
12:53 PM 55.0 °F - 37.0 °F 51% 30.45 in 10.0 mi SW 13.8 mph 20.7 mph N/A   Clear
1:53 PM 54.0 °F - 36.0 °F 51% 30.44 in 10.0 mi SW 15.0 mph 20.7 mph N/A   Clear
2:53 PM 53.1 °F - 36.0 °F 52% 30.43 in 10.0 mi SW 15.0 mph 21.9 mph N/A   Clear
3:53 PM 52.0 °F - 37.0 °F 57% 30.42 in 10.0 mi SW 12.7 mph 19.6 mph N/A   Clear
4:53 PM 48.9 °F - 37.9 °F 66% 30.42 in 10.0 mi WSW 9.2 mph - N/A   Clear
5:53 PM 48.0 °F - 37.9 °F 68% 30.42 in 10.0 mi SW 5.8 mph - N/A   Clear
6:53 PM 48.0 °F - 39.0 °F 71% 30.41 in 10.0 mi WSW 5.8 mph - N/A   Clear
7:53 PM 48.0 °F - 39.9 °F 74% 30.41 in 10.0 mi WSW 5.8 mph - N/A   Clear
8:53 PM 48.0 °F - 39.9 °F 74% 30.40 in 10.0 mi WSW 4.6 mph - N/A   Clear
9:53 PM 46.9 °F - 39.9 °F 77% 30.39 in 10.0 mi WSW 4.6 mph - N/A   Clear
10:53 PM 46.0 °F 43.1 °F 41.0 °F 83% 30.38 in 10.0 mi WSW 5.8 mph - N/A   Clear